Tracking 31027 objects as of 19-Jul-2025
HD Live streaming from Space Station
objects crossing your sky now

STARLINK-31153

Track STARLINK-31153 now!
10-day predictions
STARLINK-31153 is classified as:


NORAD ID: 59044
Int'l Code: 2024-038X
Perigee: 489.5 km
Apogee: 490.9 km
Inclination: 43.0 °
Period: 94.3 minutes
Semi major axis: 6861 km
RCS: Unknown
Launch date: February 25, 2024
Source: United States (US)
Launch site: AIR FORCE EASTERN TEST RANGE (AFETR)
Your satellite tracking list
GEOTAIL
Track 1 satellite(s)




NASA's NSSDC Master Catalog

Two Line Element Set (TLE):
1 59044U 24038X   25199.56808517  .00001782  00000-0  74253-4 0  9998
2 59044  43.0009 265.6477 0001052 253.2416 106.8320 15.27575565 78887
Source of the keplerian elements: AFSPC